OpenBCM V2.0.2 (Linux)

Packet Radio Mailbox

IZ3LSV

[San Dona' di P. JN]

 Login: GUEST





  
LU9DCE > KEPS     14.07.18 19:28l 252 Lines 12467 Bytes #999 (0) @ WW
BID : 9844_LU9DCE
Read: GUEST
Subj: SAT TLE 03 07 2018
Path: IZ3LSV<IW8PGT<CX2SA<EA2RCF<LU9DCE
Sent: 180703/0701Z 9844@LU9DCE.TOR.BA.ARG.SOAM BPQ6.0.16


            __    _  _  ___  ____   ___  ____    ____  ____  ____
           (  )  / )( \/ _ \(    \ / __)(  __)  (  _ \(  _ \/ ___)
           / (_/\) \/ (\__  )) D (( (__  ) _)    ) _ ( ) _ (\___ \
           \____/\____/(___/(____/ \___)(____)  (____/(____/(____/
               ESTACION DE PACKET RADIO - BUENOS AIRES (GF05OM)
                   BOLETINES INFORMATIVOS PROGRAMADOS (BIP)
                    LU9DCE@GMX.COM - RF 145070 @ 1200 BAUD
                   AXIP NETROM -- LU9DCE.DYNU.COM UDP 10093

+------------------------------------------------------------------------------+
OSCAR 7
1  7530U 74089B   18183.89403240 -.00000029 +00000-0 +10125-3 0  9998
2  7530 101.6879 150.9794 0011808 306.8094 108.6971 12.53633211996331
OSCAR 11 (UoSAT 2)
1 14781U 84021B   18183.65381919 +.00000025 +00000-0 +92005-5 0  9997
2 14781 097.6477 219.2096 0009425 040.7520 319.4397 14.83014864825730
OSCAR 19 (LUSAT)
1 20442U 90005G   18183.85416529 -.00000008 +00000-0 +13270-4 0  9993
2 20442 098.6105 122.2500 0012920 102.6432 257.6197 14.32899125486073
EYESAT A
1 22825U 93061C   18183.89350922 -.00000011  00000-0  13597-4 0  9999
2 22825  98.8634 160.2943 0007493 305.9722  54.0764 14.30033710291814
ITAMSAT
1 22826U 93061D   18183.90669207 -.00000004 +00000-0 +16171-4 0  9994
2 22826 098.8575 160.3434 0007890 293.9464 066.0891 14.30365359291759
RADIO ROSTO
1 23439U 94085A   18183.77217228 -.00000031 +00000-0 +33867-3 0  9999
2 23439 064.8188 323.6275 0156823 179.2533 290.6250 11.27567383968326
JAS 2
1 24278U 96046B   18183.68478893 -.00000021  00000-0  11448-4 0  9998
2 24278  98.5168  20.3043 0351377  70.7796 293.1012 13.53084341 80330
TECHSAT 1B
1 25397U 98043D   18183.91524831 -.00000009 +00000-0 +14940-4 0  9996
2 25397 098.6503 124.0940 0001374 027.5413 332.5838 14.23647771037741
ISS (ZARYA)
1 25544U 98067A   18183.85178172 +.00001664 +00000-0 +32516-4 0  9998
2 25544 051.6420 300.6278 0003427 256.6341 247.7877 15.54001920120955
PCSAT
1 26931U 01043C   18183.45674441 -.00000049  00000-0  13201-4 0  9990
2 26931  67.0494 190.0090 0008010 272.4455  87.5730 14.30509581874735
SAUDISAT 1C
1 27607U 02058C   18183.93684971 -.00000048 +00000-0 +13964-4 0  9995
2 27607 064.5557 041.8934 0066897 324.9744 034.6966 14.75461715835151
CUTE-1
1 27844U 03031E   18183.92940954 +.00000025 +00000-0 +31153-4 0  9999
2 27844 098.6859 192.3532 0009138 333.0385 027.0317 14.22120752778393
CUBESAT XI 4
1 27848U 03031J   18183.75237557 +.00000021 +00000-0 +29410-4 0  9991
2 27848 098.6945 192.5820 0009289 344.5616 015.5277 14.21723994778243
MOZHAYETS 4
1 27939U 03042A   18184.21909815  .00000082  00000-0  23138-4 0  9997
2 27939  97.9929 322.9408 0014387  97.5644  22.6381 14.66697580789168
CUBESAT XI 5
1 28895U 05043F   18183.65904849 +.00000075 +00000-0 +23264-4 0  9993
2 28895 097.9113 334.4892 0017345 025.3188 334.8861 14.63558613675906
CUTE-1.7+APD II
1 32785U 08021C   18183.84912283  .00000129  00000-0  19560-4 0  9991
2 32785  97.5464 195.2793 0012852 353.8137   6.2920 14.88139336551507
DELFI C3
1 32789U 08021G   18183.72490379 +.00000473 +00000-0 +36507-4 0  9991
2 32789 097.5105 238.1408 0010930 240.7100 119.3036 15.06126675554029
SEEDS
1 32791U 08021J   18183.71083071  .00000242  00000-0  30157-4 0  9999
2 32791  97.5352 200.5415 0012581 333.5396  26.5179 14.90577698551828
YUBELEINY
1 32953U 08025A   18183.89472608 +.00000017 +00000-0 +53986-4 0  9995
2 32953 082.5027 002.9083 0019251 173.0802 187.0547 12.43083850458721
PRISM (HITOMI)
1 33493U 09002B   18183.68313697  .00000934  00000-0  88246-4 0  9995
2 33493  98.1291  86.3687 0014058 265.4294  94.5342 14.96253703512669
KKS-1 (KISEKI)
1 33499U 09002H   18183.91354900 +.00000060 +00000-0 +16937-4 0  9997
2 33499 098.3567 006.1905 0008058 238.7279 121.3140 14.75340980507070
SWISSCUBE
1 35932U 09051B   18183.89706424 +.00000094 +00000-0 +32241-4 0  9997
2 35932 098.5475 335.4364 0008237 154.0562 206.1049 14.56171970465685
BEESAT
1 35933U 09051C   18183.92317475 +.00000079 +00000-0 +28736-4 0  9993
2 35933 098.5515 337.0209 0006178 163.6414 196.4983 14.56274480465757
ITUPSAT 1
1 35935U 09051E   18183.91809788 +.00000053 +00000-0 +23202-4 0  9992
2 35935 098.5627 337.2683 0008552 162.3113 197.8382 14.55450346465586
XIWANG-1 (HOPE-1)
1 36122U 09072B   18183.89755409 -.00000041 +00000-0 +24863-5 0  9994
2 36122 100.0744 197.7974 0008267 077.7518 282.4521 13.16345216410612
TISAT 1
1 36799U 10035E   18183.95606903  .00000132  00000-0  19460-4 0  9992
2 36799  98.1088 320.5913 0013083 151.3637 208.8301 14.90824028432508
JUGNU
1 37839U 11058B   18183.45671571  .00000308  00000-0  22584-4 0  9998
2 37839  19.9619 304.6626 0019120  55.1850 351.1045 14.12622545347534
SRMSAT
1 37841U 11058D   18183.86462616 +.00000291 +00000-0 +14806-4 0  9993
2 37841 019.9735 351.7128 0011834 303.1121 172.1386 14.10609146347008
M-CUBED/EXP-1 PRIME
1 37855U 11061F   18183.83601826 +.00000634 +00000-0 +40353-4 0  9994
2 37855 101.7151 254.3728 0176368 035.9935 325.3004 15.04510162363534
HORYU 2
1 38340U 12025D   18183.94215921 +.00000127 +00000-0 +26697-4 0  9996
2 38340 098.3649 206.2031 0012118 154.8224 205.3577 14.75569684319021
STRAND 1
1 39090U 13009E   18183.79799448  .00000002  00000-0  16109-4 0  9995
2 39090  98.5204  29.9786 0008034 248.8196 111.2132 14.35031142280066
SOMP
1 39134U 13015E   18183.93304697 +.00000761 +00000-0 +45410-4 0  9994
2 39134 064.8645 075.9737 0011001 215.8634 144.1756 15.19224764286910
BEESAT 3
1 39135U 13015F   18183.91491810 +.00000615 +00000-0 +41127-4 0  9996
2 39135 064.8699 089.5918 0019096 237.5775 122.3504 15.16725582286641
BEESAT 2
1 39136U 13015G   18183.95612816 +.00000547 +00000-0 +38241-4 0  9999
2 39136 064.8704 092.2892 0021456 234.5760 125.3362 15.16191199286595
CUBEBUG 1
1 39153U 13018D   18183.78678985  .00000124  00000-0  23231-4 0  9995
2 39153  97.9797 278.9443 0015592 254.1182 105.8312 14.80408509279897
ZACUBE
1 39417U 13066B   18183.85493827  .00000109  00000-0  20087-4 0  9998
2 39417  97.5858 211.6567 0060707 103.5748 257.2238 14.80948484249110
TRITON 1
1 39427U 13066M   18183.91275697 +.00000149 +00000-0 +31839-4 0  9990
2 39427 097.6417 178.7992 0113242 208.3092 151.1931 14.67681256246695
GOMX 1
1 39430U 13066Q   18183.87038292 +.00000134 +00000-0 +33685-4 0  9992
2 39430 097.6984 159.6155 0150013 281.2228 077.2145 14.59093016245433
HUMSAT D
1 39433U 13066T   18183.80167852 +.00000144 +00000-0 +19558-4 0  9997
2 39433 097.6025 239.6315 0031725 033.2908 327.0298 14.91888036249571
CUBEBUG 2
1 39440U 13066AA  18183.93972511 +.00000128 +00000-0 +24804-4 0  9997
2 39440 097.6004 198.2405 0081447 143.4867 217.1935 14.75686110247048
FUNCUBE 1
1 39444U 13066AE  18183.64002878 +.00000188 +00000-0 +29439-4 0  9994
2 39444 097.5866 212.9980 0059859 099.7062 261.0919 14.81731952247942
UWE-3
1 39446U 13066AG  18183.59704619 +.00000152 +00000-0 +26841-4 0  9997
2 39446 097.5916 204.2630 0071568 124.8397 235.9574 14.78220549246800
SPROUT
1 39770U 14029E   18183.80270749  .00000822  00000-0  98159-4 0  9998
2 39770  97.8772 284.7190 0009632 150.0742 210.1045 14.86883613222689
UNISAT 6
1 40012U 14033C   18183.62572285 +.00000124 +00000-0 +25968-4 0  9997
2 40012 097.8062 059.3248 0059144 148.3673 212.1112 14.73832428216974
DUCHIFAT 1
1 40021U 14033M   18183.83662524 +.00000240 +00000-0 +30513-4 0  9997
2 40021 097.9157 102.5842 0014163 122.8067 237.4516 14.90328846219285
QB50P1
1 40025U 14033R   18183.80803066 +.00000162 +00000-0 +23322-4 0  9999
2 40025 097.9048 099.1749 0013564 129.2428 230.9994 14.88730809218607
CHUBUSAT 1
1 40300U 14070C   18183.81680479  .00000650  00000-0  31758-4 0  9992
2 40300  97.3604 261.1754 0019247 205.6832 294.3448 15.21605124202659
NUDT-PHONESAT
1 40900U 15049B   18183.95907312 +.00001368 +00000-0 +64012-4 0  9994
2 40900 097.4404 192.0287 0012781 341.9254 018.1526 15.21401394154316
ZDPS 2A
1 40901U 15049C   18184.17102000  .00000529  00000-0  30012-4 0  9992
2 40901  97.4581 190.2672 0013307 349.6470  10.4487 15.17127647154087
ZDPS 2B
1 40902U 15049D   18183.94900185 +.00000530 +00000-0 +30218-4 0  9997
2 40902 097.4482 188.0459 0013328 347.5345 012.5556 15.16921335154037
XW-2A
1 40903U 15049E   18184.15561880  .00001198  00000-0  31522-4 0  9997
2 40903  97.3827 219.1691 0013385 339.7543  20.3171 15.40573334156266
KAITUO 1A
1 40904U 15049F   18184.12682428  .00000530  00000-0  31834-4 0  9992
2 40904  97.4582 187.4133 0014531 349.9432  97.7565 15.15045548153915
OBJECT G
1 40905U 15049G   18183.94561086 +.00000258 +00000-0 +17791-4 0  9991
2 40905 097.4585 185.2847 0015247 342.4466 017.6237 15.13993717153800
XW-2C
1 40906U 15049H   18183.96962792 +.00000398 +00000-0 +24636-4 0  9994
2 40906 097.4595 187.1715 0014429 341.7506 018.3207 15.15222026153888
XW-2D
1 40907U 15049J   18183.92049850 +.00000450 +00000-0 +27303-4 0  9995
2 40907 097.4569 186.8184 0013734 339.9560 020.1131 15.15375005153886
LILACSAT 2
1 40908U 15049K   18183.94621799 +.00000237 +00000-0 +16826-4 0  9997
2 40908 097.4682 186.1820 0015448 341.1048 018.9608 15.13530330153755
XW-2F
1 40910U 15049M   18183.92263255 +.00000694 +00000-0 +38928-4 0  9991
2 40910 097.4569 188.1640 0014292 335.0316 025.0225 15.16582293153965
XW-2B
1 40911U 15049N   18183.93858982 +.00000436 +00000-0 +26618-4 0  9997
2 40911 097.4604 187.3798 0013674 340.5682 019.5027 15.15318248153785
KAITUO 1B
1 40912U 15049P   18183.76751197 +.00000944 +00000-0 +48550-4 0  9992
2 40912 097.4494 190.8743 0014383 323.0016 123.0329 15.18806494154030
TIANWANG 1C (TW-1C)
1 40926U 15051B   18184.08853976  .00005867  00000-0  10880-3 0  9997
2 40926  97.1818 226.3585 0008755 207.6432 204.0242 15.49316614155776
